User: anonymous   Login
Location: Mason Neck State Park
(38.6428°N, 77.1981°W)
Time: 11:56:40
(UTC-04:00)
Language:

Cosmos 1400 Rocket - Orbit

View from above orbital plane
View from above orbital plane
View from above satellite
View from above satellite

Ground track
Ground track

The orbit data is extracted from the following two-line orbital elements,

1 13403U 82079B   15118.13933769  .00002410  00000-0  16542-3 0  9992
2 13403 081.1695 083.1996 0034247 332.0543 027.8839 15.05177575779169
Epoch (UTC): 28 April 2015 03:20:38
Eccentricity: 0.0034247
inclination: 81.1695°
perigee height: 527 km
apogee height: 574 km
right ascension of ascending node: 83.1996°
argument of perigee: 332.0543°
revolutions per day: 15.05177575
mean anomaly at epoch: 27.8839°
orbit number at epoch: 77916

The dashed part of the orbit path shows where the satellite is in the earth's shadow,  

DLR